Location: Holmbach
(49.5093°N, 8.8411°E)
Time: 20:03:48
(UTC+00:00)

Cosmos 2219 - Pass Details

Date: 17 June 2025
Orbit: 832 x 859 km, 71.1° (Epoch: 16 July)

Event Time Altitude Azimuth Distance (km) Brightness Sun altitude
Rises 21:19:31 0° 210° (SSW) 3,414 6.1 -11.9°
Reaches altitude 10° 21:21:57 10° 211° (SSW) 2,484 5.4 -12.1°
Maximum altitude 21:27:41 81° 299° (WNW) 876 3.4 -12.5°
Drops below altitude 10° 21:33:28 10° 27° (NNE) 2,506 6.2 -12.9°
Sets 21:35:57 0° 29° (NNE) 3,446 6.9 -13.1°
